Погода в Высоково

Россия / Ярославская область     57°36′21″N   38°54′42″E
темп.,
°C
ветер,
м/с
пор.,
м/с
влажн.,
%
обл.,
%
осадки,
мм/ч
давл.,
гПа
погр.,
м
30 июня, чт
чт3000:00+11сз226698 0.0 102114
03:00+10сз2368100 0.0 102146
06:00+13сз27715 0.0 1019170
09:00+19ссз465093 0.0 1018781
12:00+22ссз583576 0.0 10171613
15:00+23ссз683699 0.0 10162170
18:00+22ссв494561 0.0 10162129
21:00+15с286649 0.0 1017163
1 июля, пт
пт100:00+11св26720 0.0 1019106
03:00+9св25750 0.0 102191
06:00+12св25675 0.0 1021159
09:00+17св36420 0.0 10221295
12:00+20св45351 0.0 10221720
15:00+21св35330 0.0 10211837
18:00+21св24391 0.0 10211733
21:00+14ссз22724 0.0 102220
2 июля, сб
сб200:00+12сз116657 0.0 102211
03:00+11зсз226428 0.0 102234
06:00+13зсз276444 0.0 1022194
09:00+18зсз375579 0.0 1021313
12:00+20зсз265813 0.0 1019368
15:00+27зсз483937 0.0 10172055
18:00+26зсз36542 0.0 1016776
21:00+20с24825 0.0 101560
3 июля, вс
вс300:00+16с238694 0.0 101643
03:00+14ссв238611 0.0 101639
06:00+17ссв25765 0.0 1016137
09:00+23ссв24550 0.0 1017770
12:00+26ссв34400 0.0 10161783
15:00+27св34360 0.0 10162116
18:00+26ссв23470 0.0 10151721
21:00+18ссв12790 0.0 101719
4 июля, пн
пн400:00+16ююв22880 0.0 101717
03:00+15юз11905 0.0 101811
06:00+18ююз1178100 0.0 101863
09:00+23ю1258100 0.0 1018571
12:00+26ю214692 0.0 10171709
15:00+28ю223999 0.0 10162085
18:00+27ю235047 0.0 1016909
21:00+20ююв247659 0.0 101662